Starlink 2443

operational
NORAD ID: 48107 Int'l Des: 2021-027 Owner: SPXS Country: US Constellation: starlink
LEOCIRCULARSTARLINK_TYPE

Über Starlink 2443

Beschreibung wird geladen...

Live-Position

3D-Globus wird geladen...

Nächste Überflüge

Höhenverlauf

Altitude vs Time

uPlot chart will show altitude changes over time

Zweizeiliger Elementsatz

1 48107U 21027R 26033.04486638 .00001672 00000-0 13108-3 0 9997
2 48107 53.0557 311.6328 0001428 96.9039 263.2113 15.06417564267329
Epoch: 2. Feb. 2026 • Age: 30 hours

Aktueller Status

Höhe 547.2 km
Geschwindigkeit 7.59 km/s
Subsatellitenpunkt 13.14°N, 71.47°E
Startdatum 7. Apr. 2021
Alter 4.8 years
Typ internet

Technische Details

Klassifizierung Payload
Masse 260.00 kg
Trockenmasse 248.00 kg
Gesamtmasse 260.00 kg
Länge 0.20 m
Durchmesser 2.80 m
Spannweite 9.00 m
Form Box + pan
Hersteller SPXS
Bus-Typ Starlink
Phasenstatus In Orbit
Besitzer/Staat SPXS/US

Große Konstellationen

Loading constellations...